| time (UTC) | temp C | wind direction | speed KPH | gust KPH | rain 1hr cm | rain 24hr cm | rain mn cm | humidity % | barometer mb |
| 20260505223710 | 9 | 28 | 3.2 | 9.7 | 0.00 | 0.00 | 0.00 | 87 | 1008.9 |
| 20260505222710 | 9 | 15 | 1.6 | 11.3 | 0.00 | 0.00 | 0.00 | 87 | 1009.0 |
| 20260505222147 | 9 | 344 | 3.2 | 8.0 | 0.00 | 0.00 | 0.00 | 87 | 1008.9 |
| 20260505220708 | 9 | 11 | 3.2 | 9.7 | 0.00 | 0.00 | 0.00 | 87 | 1009.0 |
| 20260505215708 | 9 | 348 | 1.6 | 6.4 | 0.00 | 0.00 | 0.00 | 87 | 1009.0 |
| 20260505214708 | 10 | 342 | 3.2 | 6.4 | 0.00 | 0.00 | 0.00 | 86 | 1009.1 |
| 20260505214147 | 10 | 268 | 3.2 | 9.7 | 0.00 | 0.00 | 0.00 | 86 | 1009.1 |
| 20260505212712 | 10 | 32 | 1.6 | 8.0 | 0.00 | 0.00 | 0.00 | 85 | 1009.1 |
| 20260505211709 | 10 | 19 | 3.2 | 14.5 | 0.00 | 0.00 | 0.00 | 85 | 1009.2 |
| 20260505210708 | 10 | 28 | 3.2 | 9.7 | 0.00 | 0.00 | 0.00 | 85 | 1009.1 |
| 20260505205709 | 10 | 17 | 3.2 | 14.5 | 0.00 | 0.00 | 0.00 | 84 | 1009.2 |
| 20260505204708 | 10 | 38 | 4.8 | 14.5 | 0.00 | 0.00 | 0.00 | 84 | 1009.2 |
| 20260505203706 | 10 | 70 | 4.8 | 12.9 | 0.00 | 0.00 | 0.00 | 83 | 1009.2 |
| 20260505202706 | 10 | 42 | 3.2 | 14.5 | 0.00 | 0.00 | 0.00 | 84 | 1009.2 |
| 20260505201707 | 10 | 28 | 3.2 | 14.5 | 0.00 | 0.00 | 0.00 | 84 | 1009.3 |
| 20260505200705 | 10 | 342 | 4.8 | 16.1 | 0.00 | 0.00 | 0.00 | 84 | 1009.3 |
| 20260505195704 | 11 | 169 | 4.8 | 16.1 | 0.00 | 0.00 | 0.00 | 83 | 1009.1 |
| 20260505194705 | 11 | 13 | 3.2 | 16.1 | 0.00 | 0.00 | 0.00 | 84 | 1009.1 |
| 20260505194149 | 11 | 16 | 1.6 | 8.0 | 0.00 | 0.00 | 0.00 | 84 | 1009.0 |
| 20260505192705 | 11 | 32 | 1.6 | 8.0 | 0.00 | 0.00 | 0.00 | 84 | 1008.9 |
| 20260505191704 | 11 | 55 | 3.2 | 11.3 | 0.00 | 0.00 | 0.00 | 82 | 1008.8 |
| 20260505190705 | 11 | 28 | 3.2 | 16.1 | 0.00 | 0.00 | 0.00 | 82 | 1008.8 |
| 20260505185703 | 11 | 348 | 1.6 | 11.3 | 0.00 | 0.00 | 0.00 | 82 | 1008.6 |
| 20260505183702 | 12 | 323 | 3.2 | 12.9 | 0.00 | 0.00 | 0.00 | 80 | 1008.5 |
| 20260505182705 | 12 | 333 | 1.6 | 8.0 | 0.00 | 0.00 | 0.00 | 80 | 1008.4 |
| 20260505182145 | 12 | 55 | 3.2 | 11.3 | 0.00 | 0.00 | 0.00 | 80 | 1008.3 |
| 20260505180701 | 12 | 17 | 3.2 | 14.5 | 0.00 | 0.00 | 0.00 | 80 | 1008.3 |
| 20260505175704 | 13 | 5 | 3.2 | 11.3 | 0.00 | 0.00 | 0.00 | 79 | 1008.3 |
| 20260505174702 | 13 | 25 | 3.2 | 11.3 | 0.00 | 0.00 | 0.00 | 78 | 1008.2 |
| 20260505173702 | 13 | 20 | 3.2 | 11.3 | 0.00 | 0.00 | 0.00 | 78 | 1008.2 |
| 20260505172702 | 13 | 334 | 4.8 | 12.9 | 0.00 | 0.00 | 0.00 | 77 | 1008.2 |
| 20260505171704 | 13 | 0 | 3.2 | 11.3 | 0.00 | 0.00 | 0.00 | 76 | 1008.2 |
| 20260505170701 | 13 | 156 | 3.2 | 12.9 | 0.00 | 0.00 | 0.00 | 77 | 1008.2 |
| 20260505165702 | 14 | 355 | 3.2 | 11.3 | 0.00 | 0.00 | 0.00 | 76 | 1008.3 |
| 20260505164659 | 14 | 51 | 3.2 | 12.9 | 0.00 | 0.00 | 0.00 | 76 | 1008.4 |
| 20260505163700 | 15 | 321 | 4.8 | 14.5 | 0.00 | 0.00 | 0.00 | 76 | 1008.5 |
| 20260505162701 | 15 | 44 | 4.8 | 12.9 | 0.00 | 0.00 | 0.00 | 75 | 1008.5 |
| 20260505162150 | 15 | 28 | 4.8 | 14.5 | 0.00 | 0.00 | 0.00 | 74 | 1008.5 |
| 20260505160701 | 15 | 345 | 3.2 | 11.3 | 0.00 | 0.00 | 0.00 | 75 | 1008.4 |
| 20260505152700 | 15 | 126 | 6.4 | 14.5 | 0.00 | 0.00 | 0.00 | 79 | 1008.6 |
| 20260505151700 | 14 | 44 | 3.2 | 12.9 | 0.00 | 0.00 | 0.00 | 78 | 1008.7 |
| 20260505150700 | 14 | 52 | 4.8 | 11.3 | 0.00 | 0.00 | 0.00 | 81 | 1008.7 |
| 20260505130137 | 13 | 65 | 8.0 | 19.3 | 0.00 | 0.03 | 0.00 | 86 | 1009.6 |
| 20260505123649 | 13 | 68 | 8.0 | 19.3 | 0.00 | 0.03 | 0.00 | 89 | 1009.7 |
| 20260505122650 | 13 | 63 | 11.3 | 19.3 | 0.00 | 0.03 | 0.00 | 89 | 1009.7 |
| 20260505120633 | 13 | 75 | 14.5 | 20.9 | 0.00 | 0.03 | 0.00 | 87 | 1009.8 |
| 20260505115633 | 13 | 52 | 12.9 | 24.1 | 0.00 | 0.03 | 0.00 | 88 | 1009.7 |
| 20260505114631 | 13 | 36 | 8.0 | 19.3 | 0.00 | 0.03 | 0.00 | 89 | 1009.7 |
| 20260505113630 | 12 | 61 | 8.0 | 17.7 | 0.00 | 0.03 | 0.00 | 89 | 1009.8 |
| 20260505113113 | 12 | 57 | 8.0 | 19.3 | 0.00 | 0.03 | 0.00 | 89 | 1009.9 |
| 20260505111633 | 13 | 25 | 8.0 | 22.5 | 0.00 | 0.03 | 0.00 | 89 | 1009.9 |
| 20260505111110 | 12 | 55 | 6.4 | 17.7 | 0.00 | 0.03 | 0.00 | 90 | 1010.0 |
| 20260505101604 | 12 | 63 | 4.8 | 12.9 | 0.00 | 0.03 | 0.00 | 91 | 1010.3 |
| 20260505100603 | 12 | 139 | 3.2 | 12.9 | 0.00 | 0.03 | 0.00 | 91 | 1010.3 |
| 20260505095601 | 11 | 59 | 3.2 | 12.9 | 0.00 | 0.03 | 0.00 | 92 | 1010.3 |
| 20260505094604 | 11 | 57 | 4.8 | 14.5 | 0.00 | 0.03 | 0.00 | 92 | 1010.4 |
| 20260505093533 | 11 | 61 | 6.4 | 17.7 | 0.00 | 0.03 | 0.00 | 93 | 1010.4 |
| 20260505092531 | 11 | 57 | 8.0 | 17.7 | 0.00 | 0.03 | 0.00 | 93 | 1010.5 |
| 20260505091531 | 11 | 44 | 6.4 | 14.5 | 0.00 | 0.03 | 0.00 | 93 | 1010.5 |
| 20260505090521 | 10 | 22 | 8.0 | 16.1 | 0.00 | 0.03 | 0.00 | 94 | 1010.5 |
| 20260505085520 | 10 | 61 | 6.4 | 14.5 | 0.00 | 0.03 | 0.00 | 94 | 1010.6 |
| 20260505084958 | 10 | 80 | 6.4 | 16.1 | 0.00 | 0.03 | 0.00 | 95 | 1010.7 |
| 20260505083518 | 10 | 74 | 8.0 | 16.1 | 0.00 | 0.03 | 0.00 | 96 | 1010.7 |
| 20260505082518 | 10 | 90 | 6.4 | 17.7 | 0.00 | 0.03 | 0.00 | 96 | 1010.5 |
| 20260505081945 | 10 | 78 | 6.4 | 17.7 | 0.00 | 0.03 | 0.00 | 96 | 1010.5 |
| 20260505080511 | 10 | 346 | 6.4 | 16.1 | 0.00 | 0.03 | 0.00 | 97 | 1010.5 |
| 20260505075514 | 10 | 63 | 6.4 | 16.1 | 0.00 | 0.03 | 0.00 | 96 | 1010.4 |
| 20260505074505 | 10 | 94 | 4.8 | 14.5 | 0.00 | 0.03 | 0.00 | 97 | 1010.4 |
| 20260505073506 | 10 | 38 | 6.4 | 12.9 | 0.00 | 0.03 | 0.00 | 97 | 1010.4 |
| 20260505072945 | 10 | 9 | 4.8 | 14.5 | 0.00 | 0.03 | 0.00 | 98 | 1010.4 |
| 20260505071506 | 10 | 63 | 4.8 | 16.1 | 0.00 | 0.03 | 0.00 | 98 | 1010.4 |
| 20260505070941 | 10 | 42 | 6.4 | 14.5 | 0.00 | 0.03 | 0.00 | 98 | 1010.5 |
| 20260505065502 | 10 | 351 | 4.8 | 11.3 | 0.00 | 0.03 | 0.00 | 98 | 1010.5 |
| 20260505064501 | 10 | 67 | 3.2 | 14.5 | 0.00 | 0.03 | 0.00 | 98 | 1010.5 |
| 20260505063506 | 10 | 24 | 4.8 | 11.3 | 0.00 | 0.03 | 0.00 | 98 | 1010.6 |
| 20260505062505 | 10 | 34 | 3.2 | 9.7 | 0.00 | 0.03 | 0.00 | 98 | 1010.6 |
| 20260505061501 | 10 | 63 | 3.2 | 9.7 | 0.00 | 0.03 | 0.00 | 98 | 1010.7 |
| 20260505060500 | 10 | 31 | 3.2 | 12.9 | 0.00 | 0.03 | 0.00 | 98 | 1010.7 |
| 20260505055501 | 10 | 29 | 3.2 | 11.3 | 0.00 | 0.03 | 0.00 | 97 | 1010.7 |
| 20260505054459 | 10 | 315 | 3.2 | 9.7 | 0.00 | 0.03 | 0.00 | 97 | 1010.8 |
| 20260505053457 | 10 | 33 | 1.6 | 9.7 | 0.00 | 0.03 | 0.00 | 96 | 1010.8 |
| 20260505052459 | 10 | 59 | 3.2 | 8.0 | 0.00 | 0.03 | 0.00 | 96 | 1010.9 |
| 20260505051457 | 10 | 18 | 1.6 | 6.4 | 0.00 | 0.03 | 0.00 | 96 | 1010.8 |
| 20260505050450 | 10 | 317 | 3.2 | 9.7 | 0.00 | 0.03 | 0.00 | 96 | 1010.6 |
| 20260505040438 | 10 | 86 | 1.6 | 4.8 | 0.00 | 0.03 | 0.00 | 95 | 1010.6 |
| 20260505035917 | 10 | 46 | 3.2 | 14.5 | 0.00 | 0.03 | 0.00 | 94 | 1010.6 |
| 20260505034436 | 10 | 18 | 3.2 | 11.3 | 0.00 | 0.03 | 0.00 | 94 | 1010.5 |
| 20260505033435 | 10 | 5 | 3.2 | 14.5 | 0.00 | 0.03 | 0.00 | 94 | 1010.6 |
| 20260505032436 | 10 | 320 | 4.8 | 12.9 | 0.00 | 0.03 | 0.00 | 94 | 1010.6 |
| 20260505031436 | 10 | 65 | 3.2 | 12.9 | 0.00 | 0.03 | 0.00 | 94 | 1010.7 |
| 20260505030436 | 10 | 347 | 3.2 | 12.9 | 0.00 | 0.03 | 0.00 | 94 | 1010.7 |
| 20260505025436 | 10 | 67 | 3.2 | 14.5 | 0.00 | 0.03 | 0.00 | 94 | 1010.8 |
| 20260505024437 | 11 | 54 | 4.8 | 16.1 | 0.00 | 0.03 | 0.00 | 93 | 1010.8 |
| 20260505023435 | 11 | 5 | 3.2 | 12.9 | 0.00 | 0.03 | 0.00 | 94 | 1010.9 |
| 20260505022437 | 11 | 69 | 3.2 | 14.5 | 0.00 | 0.03 | 0.00 | 94 | 1010.8 |
| 20260505021434 | 11 | 17 | 3.2 | 9.7 | 0.00 | 0.03 | 0.00 | 93 | 1010.8 |
| 20260505020434 | 11 | 9 | 3.2 | 9.7 | 0.00 | 0.03 | 0.00 | 93 | 1010.8 |
| 20260505015434 | 11 | 73 | 3.2 | 12.9 | 0.00 | 0.03 | 0.00 | 93 | 1010.7 |
| 20260505014433 | 11 | 355 | 3.2 | 11.3 | 0.00 | 0.03 | 0.00 | 93 | 1010.8 |
| 20260505013431 | 11 | 5 | 3.2 | 11.3 | 0.00 | 0.03 | 0.00 | 93 | 1010.9 |
| 20260505012432 | 11 | 88 | 3.2 | 9.7 | 0.00 | 0.03 | 0.00 | 92 | 1011.0 |
| 20260505011431 | 11 | 19 | 3.2 | 11.3 | 0.00 | 0.03 | 0.00 | 92 | 1010.9 |
| 20260505010432 | 11 | 17 | 4.8 | 16.1 | 0.00 | 0.03 | 0.00 | 92 | 1010.9 |
| 20260505005431 | 11 | 296 | 3.2 | 12.9 | 0.00 | 0.03 | 0.00 | 92 | 1011.0 |
| 20260505004431 | 12 | 320 | 3.2 | 9.7 | 0.00 | 0.03 | 0.00 | 93 | 1011.1 |
| 20260505003430 | 12 | 46 | 1.6 | 8.0 | 0.00 | 0.03 | 0.00 | 93 | 1011.2 |
| 20260505002431 | 12 | 9 | 3.2 | 9.7 | 0.00 | 0.03 | 0.00 | 93 | 1011.2 |
| 20260505001430 | 12 | 49 | 3.2 | 12.9 | 0.00 | 0.03 | 0.00 | 92 | 1011.2 |
| 20260505000430 | 12 | 32 | 3.2 | 11.3 | 0.00 | 0.03 | 0.00 | 92 | 1011.3 |
| 20260504234428 | 12 | 40 | 3.2 | 12.9 | 0.00 | 0.03 | 0.00 | 92 | 1011.3 |
| 20260504233916 | 12 | 61 | 3.2 | 14.5 | 0.00 | 0.03 | 0.00 | 92 | 1011.4 |
| 20260504232428 | 12 | 324 | 4.8 | 16.1 | 0.00 | 0.03 | 0.00 | 91 | 1011.5 |
| 20260504231429 | 12 | 79 | 3.2 | 14.5 | 0.00 | 0.03 | 0.00 | 92 | 1011.5 |
| 20260504230909 | 12 | 347 | 3.2 | 11.3 | 0.00 | 0.03 | 0.00 | 92 | 1011.6 |
| 20260504225415 | 12 | 24 | 3.2 | 9.7 | 0.00 | 0.03 | 0.00 | 92 | 1011.6 |
| 20260504224415 | 12 | 31 | 3.2 | 9.7 | 0.00 | 0.03 | 0.00 | 93 | 1011.7 |